Tracking 29747 objects as of 9-Oct-2024
HD Live streaming from Space Station
objects crossing your sky now

SL-14 DEB

Track SL-14 DEB now!
10-day predictions


NORAD ID: 45292
Int'l Code: 1991-056AE
Perigee: 1,029.1 km
Apogee: 1,232.7 km
Inclination: 82.6 °
Period: 107.8 minutes
Semi major axis: 7501 km
RCS: Unknown
Launch date: August 15, 1991
Source: Commonwealth of Independent States (former USSR) (CIS)
Launch site: PLESETSK MISSILE AND SPACE COMPLEX (PKMTR)

Note: This is SATELLITE DEBRIS
Your satellite tracking list
Your tracking list is empty




NASA's NSSDC Master Catalog

Two Line Element Set (TLE):
1 45292U 91056AE  24283.48693386  .00014204  00000-0  26241-1 0  9996
2 45292  82.6225 201.8926 0135714 349.1897  10.6325 13.36125828225093
Source of the keplerian elements: AFSPC